Regional Weather Roundup
Issued by NWS

Home | Current Version | Previous Version | Text Only | Print | Product List | Glossary On
Versions: 1 2 3 4 5 6 7 8 9 10 11 12 13 14 15 16 17 18 19 20 21 22 23 24 25 26 27 28 29 30 31 32 33 34 35 36 37 38 39 40 41 42 43 44 45 46 47 48 49 50
000
ASUS43 KMKX 211021
RWRWI

WISCONSIN REGIONAL WEATHER ROUNDUP
NATIONAL WEATHER SERVICE MILWAUKEE/SULLIVAN WI
500 AM CDT TUE OCT 21 2014

NOTE: "FAIR" INDICATES FEW OR NO CLOUDS BELOW 12,000 FEET WITH NO
SIGNIFICANT WEATHER AND/OR OBSTRUCTIONS TO VISIBILITY.

WIZ001-002-006>008-014>016-023>028-211100-
NORTHWEST WISCONSIN

CITY           SKY/WX    TMP DP  RH WIND       PRES   REMARKS
SUPERIOR ARPT  CLOUDY    44  38  82 E5        30.19R
ASHLAND        CLOUDY    43  37  79 NE5       30.20R
HAYWARD        CLOUDY    43  35  73 NE6       30.17R
SIREN          PTCLDY    35  33  92 CALM      30.16R
CUMBERLAND     CLOUDY    43  36  75 E7        30.15S
RICE LAKE      CLOUDY    45  37  72 NE6       30.17R
CHETEK         CLOUDY    45  36  72 NE8       30.17R
LADYSMITH      CLOUDY    40  35  82 NE5       30.17S
EAU CLAIRE     CLEAR     32  31  96 NE3       30.15S FOG
MENOMONIE      CLEAR     36  35  96 CALM      30.16R
NEW RICHMOND   FOG       33  33 100 CALM      30.15S VSB 1
OSCEOLA        FOG       31  31 100 CALM      30.19R VSB 1/2
$$

WIZ003>005-009-010-017-018-211100-
NORTH CENTRAL WISCONSIN

CITY           SKY/WX    TMP DP  RH WIND       PRES   REMARKS
MANITOWISH WTR CLOUDY    38  35  89 NE7       30.16R WCI  32
ARBOR VITAE    CLOUDY    40  37  88 NE6       30.15R
WOODRUFF       CLOUDY    40  37  88 NE6       30.15R
RHINELANDER    CLOUDY    39  34  82 NE5       30.15R
EAGLE RIVER    CLOUDY    38  36  92 N8        30.15R WCI  32
LAND O LAKES   CLOUDY    38  36  92 NE3       30.16R
PHILLIPS       CLOUDY    39  34  82 NE8       30.15R WCI  33
TOMAHAWK       CLOUDY    40  33  77 CALM      30.16R
MEDFORD        CLOUDY    39  34  81 N14       30.14R WCI  31
MERRILL        CLOUDY    41  35  81 NE5       30.14R
$$

WIZ029-030-035-036-043>047-211100-
CENTRAL WISCONSIN

CITY           SKY/WX    TMP DP  RH WIND       PRES   REMARKS
WAUSAU         CLOUDY    42  34  73 N7        30.13R
MOSINEE        CLOUDY    39  36  87 N8G18     30.14R WCI  34
MARSHFIELD     CLEAR     39  35  86 NE7       30.13R WCI  34
STEVENS POINT  CLOUDY    37  34  90 N3        30.14R
WAUPACA        CLOUDY    42  37  83 CALM      30.14R
WAUTOMA        MOCLDY    41  37  85 N6        30.14R
WISC RAPIDS    CLEAR     40  34  79 N9        30.15R WCI  34
CAMP DOUGLAS   CLEAR     37  37 100 NW1       30.13R
$$

WIZ011>013-019>022-031-037>040-048>050-211100-
NORTHEAST WISCONSIN

CITY           SKY/WX    TMP DP  RH WIND       PRES   REMARKS
ANTIGO         CLOUDY    39  35  85 N8        30.13R WCI  33
SHAWANO        CLOUDY    45  38  75 N14       30.13R
OCONTO         CLOUDY    42  38  88 N5        30.11R
STURGEON BAY   CLOUDY    45  37  76 N17G23    30.11R
GREEN BAY      CLOUDY    44  38  79 N13       30.11R
MANITOWOC      CLOUDY    45  40  82 N13       30.09R
APPLETON       CLOUDY    43  34  70 N15       30.12R
CLINTONVILLE   CLOUDY    41  36  81 N3        30.12R
OSHKOSH        CLOUDY    44  38  79 N12       30.11R
$$

WIZ032>034-041-042-053>061-211100-
SOUTHWEST WISCONSIN

CITY           SKY/WX    TMP DP  RH WIND       PRES   REMARKS
LA CROSSE      CLEAR     39  37  92 N6        30.14R WCI  35
SPARTA         CLEAR     29  29  99 CALM      30.15R
VIROQUA        CLEAR     37  37 100 CALM      30.12R
BOSCOBEL       FOG       34  32  92 CALM      30.14R VSB 1/2
PRAIRIE DU CHI CLEAR     37  36  93 CALM      30.13R
PLATTEVILLE    CLEAR     38  36  91 CALM      30.12R
$$

WIZ056-057-062-063-064-067-068-211100-
SOUTH CENTRAL WISCONSIN

CITY           SKY/WX    TMP DP  RH WIND       PRES   REMARKS
REEDSBURG      PTCLDY    44  38  79 N5        30.11R
BARABOO/DELLS  CLEAR     44  36  75 CALM      30.11R
LONE ROCK      CLEAR     40  35  83 W6        30.12R
MINERAL POINT  CLEAR     37  36  93 N5        30.10R WCI  34
MADISON        CLOUDY    47  40  76 N7        30.10R
MIDDLETON      CLOUDY    48  40  74 N5        30.10R
WATERTOWN      CLOUDY    45  38  76 N12       30.09R
MONROE         MOCLDY    43  37  81 NW6       30.08R
JANESVILLE     CLOUDY    46  37  71 N5        30.08R
$$

WIZ051-052-058>065-066-070>072-211100-
SOUTHEAST WISCONSIN

CITY           SKY/WX    TMP DP  RH WIND       PRES   REMARKS
MILWAUKEE      MOCLDY    46  39  76 N10       30.07R
WAUKESHA       CLOUDY    43  36  75 N9        30.08R
MILWAUKEE/TIMM CLOUDY    45  36  70 N9        30.08R
RACINE         CLOUDY    46  40  79 N8        30.08R
BURLINGTON     MOCLDY    42  37  80 N3        30.07R
KENOSHA        PTCLDY    44  39  82 N6        30.06R
FOND DU LAC    CLOUDY    45  37  73 N9        30.10R
SHEBOYGAN      CLOUDY    45  39  79 N7        30.08R
WEST BEND      CLOUDY    43  36  75 N7        30.08R
JUNEAU         CLOUDY    42  37  79 N8        30.11R
$$

LSZ147-162-211100-
LAKE SUPERIOR

STATION/POSITION TIME  TEMP    WIND        PRES    WAVE
                       AIR SEA DIR/SP/G            HT/PER
                 (UTC) (F)     (DEG/KT/KT) (MB)    (FT/S)
W MID LAKE BUOY  0950   41 46   60/ 10/ 14 1023.4R   3/ 5
DEVILS ISLAND    1000   43      60/ 13/ 16 1023.6R
PORT WING        0940   44     110/  5/  9 1022.4R
SAXON HARBOR     0900   46      40/ 11/ 13 1022.0R
$$

LMZ867-665-643>646-211100-
LAKE MICHIGAN

STATION/POSITION TIME  TEMP    WIND        PRES    WAVE
                       AIR SEA DIR/SP/G            HT/PER
                 (UTC) (F)     (DEG/KT/KT) (MB)    (FT/S)
CHAMBERS ISLAND  0900   45     330/ 17/ 22 1018.6R
N MID LAKE BUOY  0950   46 51   10/ 21/ 23 1018.1R   4/ 5
NORTHPORT PIER   1004   46     360/ 21/ 25 1019.3R
SISTER BAY       0927           10/ 17/ 20   N/A
KEWAUNEE LAKESHO 1000   45     340/  8/ 12 1018.0R
SHEBOYGAN LAKESH 1000   46 50  350/ 19/ 21 1019.2R
PORT WASHINGTON  0940   46     330/  5/  9 1019.0R
ATWATER BUOY     1000   48     360/ 16/ 19 1019.1R
MILWAUKEE LAKESH 1000   47     340/  9/ 12   N/A
S MID LAKE BUOY  0950   49 54  330/ 19/ 23 1016.9R   5/ 6
KENOSHA   LAKESH 1000   47     330/  9/ 13 1017.9R
$$

TC  - TEMPERATURE IN CELSIUS
VSB - VISIBILITY IN STATUTE MILES
WCI - WIND CHILL INDEX
HX  - HEAT INDEX



USA.gov is the U.S. government's official web portal to all federal, state and local government web resources and services.